Weather History for Asheville, NC

Change the Weather History Date:

Thursday, July 24, 2008

  Actual Average Record
Temperature  
Mean Temperature 69 °F 74 °F  
Max Temperature 83 °F 84 °F 96 °F (1983)
Min Temperature 55 °F 64 °F 52 °F (1966)
Degree Days  
Heating Degree Days 0 0  
Month to date heating degree days 1 0  
Since 1 June heating degree days 14  
Since 1 July heating degree days 1 0  
Cooling Degree Days 4 9  
Month to date cooling degree days 178 212  
Year to date cooling degree days 449 447  
Since 1 June cooling degree days 389  
Growing Degree Days 18 (Base 50)    
Moisture  
Dew Point 53 °F    
Average Humidity 65    
Maximum Humidity 100    
Minimum Humidity 30    
Precipitation  
Precipitation 0.00 in 0.14 in 1.90 in (1890)
Month to date precipitation 3.36 3.35  
Year to date precipitation 19.24 26.25  
Snow  
Snow 0.00 in 0.00 in 0.00 in ()
Month to date snowfall 0.0 0.0  
Since 1 June snowfall 0.0  
Since 1 July snowfall 0.0 0.0  
Snow Depth -    
Sea Level Pressure  
Sea Level Pressure 30.06 in    
Wind  
Wind Speed 5 mph (NW)    
Max Wind Speed 12 mph    
Max Gust Speed 17 mph    
Visibility 10 miles    
Events      
T = Trace of Precipitation, MM = Missing Value Source: NWS Daily Summary

Daily Weather History Graph

Daily Weather History Graph

Search for Another Location

Airport:

Trip Planner

Search our weather history database for the weather conditions in past years. The results will help you decide how hot, cold, wet, or windy it might be!

Date:

Astronomy

Jul. 24, 2008 Rise Set
Actual Time 6:32 AM EDT 8:39 PM EDT
Civil Twilight 6:04 AM EDT 9:08 PM EDT
Nautical Twilight 5:29 AM EDT 9:43 PM EDT
Astronomical Twilight 4:51 AM EDT 10:20 PM EDT
Moon No Moon Rise 12:52 PM EDT (7/24)
Length of Visible Light 15h 03m
Length of Day
14h 06m
Waning Gibbous, 62% of the Moon is Illuminated
Jul 24
Waning Gibbous
Jul 25
Last Quarter
Aug 1
New
Aug 8
First Quarter
Aug 16
Full

Hourly Weather History & Observations

Time (EDT) Temp. Heat Index Dew Point Humidity Pressure Visibility Wind Dir Wind Speed Gust Speed Precip Events Conditions
12:54 AM 66.9 °F - 57.9 °F 73% 30.00 in 10.0 mi Calm Calm - N/A   Scattered Clouds
1:54 AM 62.6 °F - 57.2 °F 82% 30.07 in 10.0 mi NW 4.6 mph - N/A   Clear
2:54 AM 61.0 °F - 57.9 °F 90% 29.99 in 10.0 mi NNW 8.1 mph - N/A   Clear
3:54 AM 64.0 °F - 57.9 °F 80% 30.00 in 10.0 mi North 6.9 mph - N/A   Clear
4:54 AM 60.1 °F - 57.0 °F 90% 30.02 in 10.0 mi NNW 6.9 mph - N/A   Clear
5:54 AM 57.9 °F - 57.0 °F 97% 30.04 in 10.0 mi Calm Calm - N/A   Clear
6:54 AM 55.9 °F - 54.0 °F 93% 30.07 in 8.0 mi Calm Calm - N/A   Clear
7:54 AM 57.9 °F - 55.9 °F 93% 30.07 in 10.0 mi SSE 3.5 mph - N/A   Clear
8:54 AM 63.0 °F - 57.9 °F 84% 30.08 in 10.0 mi SSE 3.5 mph - N/A   Clear
9:54 AM 71.1 °F - 55.9 °F 59% 30.08 in 10.0 mi Variable 5.8 mph - N/A   Clear
10:54 AM 73.9 °F - 50.0 °F 43% 30.07 in 10.0 mi North 9.2 mph - N/A   Clear
11:54 AM 77.0 °F - 48.0 °F 36% 30.08 in 10.0 mi Variable 4.6 mph - N/A   Clear
12:54 PM 79.0 °F - 46.9 °F 32% 30.06 in 10.0 mi Variable 5.8 mph - N/A   Clear
1:54 PM 81.0 °F - 46.9 °F 30% 30.06 in 10.0 mi WNW 9.2 mph - N/A   Clear
2:54 PM 81.0 °F - 46.0 °F 29% 30.04 in 10.0 mi Calm Calm - N/A   Clear
3:54 PM 82.4 °F - 50.0 °F 32% 30.11 in 10.0 mi Variable 6.9 mph - N/A   Clear
4:54 PM 82.0 °F - 50.0 °F 33% 30.03 in 10.0 mi SSW 6.9 mph - N/A   Clear
5:54 PM 81.0 °F 81.0 °F 57.0 °F 44% 30.05 in 10.0 mi SSW 8.1 mph - N/A   Mostly Cloudy
6:54 PM 78.1 °F - 57.0 °F 48% 30.06 in 10.0 mi WSW 4.6 mph - N/A   Clear
7:54 PM 77.0 °F - 51.1 °F 40% 30.07 in 10.0 mi NNW 8.1 mph - N/A   Partly Cloudy
8:54 PM 73.0 °F - 52.0 °F 48% 30.07 in 10.0 mi NW 5.8 mph - N/A   Clear
9:54 PM 72.0 °F - 52.0 °F 49% 30.09 in 10.0 mi NNW 6.9 mph - N/A   Mostly Cloudy
10:54 PM 72.0 °F - 51.1 °F 48% 30.10 in 10.0 mi North 5.8 mph - N/A   Clear
11:54 PM 70.0 °F - 52.0 °F 53% 30.11 in 10.0 mi Calm Calm - N/A   Clear